Regional Weather Roundup
Issued by NWS

Home | Current Version | Previous Version | Graphics & Text | Print | Product List | Glossary On
Versions: 1 2 3 4 5 6 7 8 9 10 11 12 13 14 15 16 17 18 19 20 21 22 23 24 25 26 27 28 29 30 31 32 33 34 35 36 37 38 39 40 41 42 43 44 45 46 47 48 49 50
000
ASUS43 KOAX 150702
RWRNE

WEATHER ROUNDUP FOR NEBRASKA
NATIONAL WEATHER SERVICE OMAHA NE
200 AM CDT MON SEP 15 2014

NOTES: SATELLITE DATA IS BEING USED TO AUGMENT CLOUD COVER ABOVE
       12000 FEET.
       "FAIR" INDICATES FEW OR NO CLOUDS BELOW 12,000 FEET WITH NO
       SIGNIFICANT WEATHER AND/OR OBSTRUCTIONS TO VISIBILITY.

  * THESE STATIONS DO NOT REPORT WEATHER SUCH AS RAIN...SNOW OR FOG.

NEZ001>004-019>022-054>056-150800-
NEBRASKA PANHANDLE

CITY           SKY/WX    TMP DP  RH WIND       PRES   REMARKS
SCOTTSBLUFF    CLEAR     45  41  86 N6        30.23R
ALLIANCE       CLOUDY    43  40  89 N10       30.21R
CHADRON        CLEAR     38  36  92 W5        30.24R WCI  34
KIMBALL        PTCLDY    47  45  91 N12       30.18R
SIDNEY         CLOUDY    52  46  80 N14       30.17R
$$

NEZ057>060-069>072-079>082-150800-
SOUTHWEST NEBRASKA

CITY           SKY/WX    TMP DP  RH WIND       PRES   REMARKS
NORTH PLATTE   CLEAR     54  51  90 N7        30.07R
IMPERIAL       PTCLDY    55  53  93 N7        30.08R
LEXINGTON      PTCLDY    56  53  89 NE9       30.03F
MCCOOK         PTCLDY    53  51  93 NE8       30.03R
OGALLALA       MOCLDY    58  56  95 N13G18    30.11R
$$

NEZ005>010-023>029-035>040-094-150800-
NORTH CENTRAL NEBRASKA

CITY           SKY/WX    TMP DP  RH WIND       PRES   REMARKS
VALENTINE      CLOUDY    50  39  66 N13       30.19R
AINSWORTH      CLOUDY    49  41  74 N10       30.17R
BROKEN BOW     PTCLDY    54  50  86 NW3       30.06R
O`NEILL        CLOUDY    51  48  87 N10       30.11F
ORD            PTCLDY    52  50  93 N8        30.06R
THEDFORD       CLOUDY    50  45  82 N9        30.16R
$$

NEZ041-046>049-061>064-073>077-083>087-150800-
SOUTH CENTRAL NEBRASKA

CITY           SKY/WX    TMP DP  RH WIND       PRES   REMARKS
GRAND ISLAND   CLOUDY    60  54  80 NE7       30.04S
AURORA         MOCLDY    59  56  89 E5        30.05R
HASTINGS       PTCLDY    58  52  80 E6        30.02S
HEBRON         CLEAR     60  55  85 E3        29.99F
HOLDREGE       MOCLDY    56  53  86 E9        30.00F
KEARNEY *      MOCLDY    55  52  88 E6        30.04S
YORK           CLOUDY    59  57  94 E7        30.04F
$$

NEZ011>018-030>034-042>045-150800-
NORTHEAST NEBRASKA

CITY           SKY/WX    TMP DP  RH WIND       PRES   REMARKS
NORFOLK        MOCLDY    55  52  89 CALM      30.06S
ALBION         MOCLDY    56  53  88 NE5       30.05F
BLAIR          CLOUDY    60  57  89 SE3       30.05F
COLUMBUS *     CLOUDY    61  54  77 SE9       30.05F
FREMONT        CLOUDY    63  55  75 E5        30.05F
TEKAMAH        CLOUDY    60  56  86 CALM      30.06S
WAYNE          PTCLDY    49  48  95 CALM      30.09R
$$

NEZ050>053-065>068-078-088>093-150800-
SOUTHEAST NEBRASKA

CITY           SKY/WX    TMP DP  RH WIND       PRES   REMARKS
LINCOLN        CLOUDY    62  57  83 NE7       30.05F
OMAHA EPPLEY   TSTM      61  57  87 SE3       30.08R
BEATRICE       CLOUDY    63  57  82 E5        30.02R
FALLS CITY     MOCLDY    63  58  83 SE8       30.02F
NEBRASKA CITY  CLOUDY    63  54  73 NE5       30.04S
PLATTSMOUTH    CLOUDY    59  56  88 NE9       30.05F
$$

NEZ044-045-051>053-067-150800-
OMAHA AREA

CITY           SKY/WX    TMP DP  RH WIND       PRES   REMARKS
OMAHA EPPLEY   TSTM      61  57  87 SE3       30.08R
BLAIR          CLOUDY    60  57  89 SE3       30.05F
FREMONT        CLOUDY    63  55  75 E5        30.05F
PLATTSMOUTH    CLOUDY    59  56  88 NE9       30.05F
WAHOO          LGT RAIN  60  56  85 E6        30.05F
$$


USA.gov is the U.S. government's official web portal to all federal, state and local government web resources and services.